#timestamp,LO_Frequency,Hit,StdDev 
1514804415.9,286047005.6,N
1514804435.7,286047005.6,N
1514804455.5,286047008.6,Y
1514804475.4,286047003.3,P
1514804495.2,286047003.6,P
1514804515.0,286047004.5,P
1514804515.9,286047004.5,Y
1514804535.8,286047000.0,P
1514804555.6,286046998.6,N
1514804575.4,286047000.2,N
1514804595.3,286047001.2,N
1514804615.1,286047001.9,N
1514804616.0,286047001.9,N
1514804635.8,286047000.0,N
1514804655.7,286047000.5,N
1514804675.5,286046999.6,N
1514804695.3,286046996.4,N
1514804715.2,286046998.0,N
1514804735.9,286046992.0,Y
1514804755.7,286046993.2,P
1514804775.6,286046988.6,P
1514804795.4,286046990.0,N
1514804815.2,286046988.6,N
1514804835.1,286046985.4,Y
1514804836.0,286046985.4,P
1514804855.8,286046992.6,N
1514804875.6,286046986.9,P
1514804895.5,286046989.3,Y
1514804915.3,286047000.0,P
1514804935.1,286047000.1,N
1514804955.9,286047001.9,N
1514804975.7,286047003.7,N
1514804995.5,286047007.4,N
1514805015.4,286047008.2,N
1514805035.2,286047012.4,N
1514805055.0,286047012.4,N
1514805055.9,286047012.4,N
1514805075.7,286047008.0,N
1514805095.6,286047007.9,N
1514805115.4,286047008.7,N
1514805135.2,286047008.4,N
1514805155.1,286047010.5,N
1514805156.0,286047010.5,N
1514805175.8,286047011.1,N
1514805195.6,286047010.0,N
1514805215.5,286047011.5,N
1514805235.3,286047014.9,N
1514805255.1,286047015.6,N
1514805275.9,286047015.3,N
1514805295.7,286047014.1,N
1514805315.5,286047016.4,N
1514805335.4,286047019.1,Y
1514805355.2,286047013.0,P
1514805375.0,286047015.6,P
1514805375.9,286047015.6,P
1514805395.8,286047013.8,Y
1514805415.6,286046998.5,P
1514805435.4,286047000.8,N
1514805455.3,286047002.7,N
1514805475.1,286047000.8,N
1514805476.0,286047000.8,N
1514805495.8,286046997.6,N
1514805515.6,286046999.1,N
1514805535.5,286046997.6,N
1514805555.3,286046997.7,N
1514805575.1,286047000.9,N
1514805595.9,286046998.0,N
1514805615.7,286046997.7,N
1514805635.5,286046999.0,N
1514805655.4,286046998.5,N
1514805675.2,286047001.3,N
1514805695.0,286047003.5,N
1514805695.9,286047003.5,N
1514805715.8,286047005.3,N
1514805735.6,286047007.2,N
1514805755.4,286047009.2,N
1514805775.2,286047008.3,N
1514805795.1,286047006.5,N
1514805796.0,286047006.5,N
1514805815.8,286047006.9,N
1514805835.6,286047007.3,N
1514805855.5,286047009.0,N
1514805875.3,286047006.5,N
1514805895.1,286047003.4,N
1514805915.9,286047001.5,N
1514805935.7,286047001.4,N
1514805955.5,286047002.6,N
1514805975.4,286047000.5,N
1514805995.2,286047002.7,N
1514806015.0,286047002.8,N
1514806015.9,286047002.8,N
1514806035.8,286047000.4,N
1514806055.6,286047002.0,N
1514806075.4,286047003.2,N
1514806095.3,286047008.0,N
1514806115.1,286047012.0,Y
1514806116.0,286047012.0,P
1514806135.8,286047011.5,N
1514806155.7,286047011.2,N
1514806175.5,286047009.7,N
1514806195.3,286047006.3,N
1514806215.2,286047006.6,N
1514806235.9,286047002.9,N
1514806255.7,286047001.7,N
1514806275.6,286047003.5,N
1514806295.4,286047004.6,N
1514806315.2,286047006.9,N
1514806335.1,286047006.9,N
1514806336.0,286047006.9,N
1514806355.8,286047007.8,N
1514806375.6,286047007.9,N
1514806395.5,286047011.1,Y
1514806415.3,286047000.0,P
1514806435.1,286047001.0,N
1514806455.8,286047006.0,N
1514806475.7,286046999.0,N
1514806495.5,286047000.6,N
1514806515.3,286047000.4,N
1514806535.2,286047002.8,N
1514806555.0,286047000.9,N
1514806555.9,286047000.9,N
1514806575.7,286046998.2,N
1514806595.6,286046999.6,N
1514806615.4,286046996.9,N
1514806635.2,286046996.4,N
1514806655.1,286046997.6,N
1514806656.0,286046997.6,N
1514806675.8,286046999.5,N
1514806695.6,286047001.1,N
1514806715.5,286046999.2,N
1514806735.3,286046997.4,N
1514806755.1,286046999.4,N
1514806775.8,286046996.3,N
1514806795.7,286046994.3,N
1514806815.5,286046996.4,N
1514806835.3,286046993.7,N
1514806855.2,286046992.0,N
1514806875.9,286046995.9,N
1514806895.7,286046994.0,N
1514806915.6,286046995.4,N
1514806935.4,286046996.1,N
1514806955.2,286046995.5,N
1514806975.1,286046999.2,N
1514806976.0,286046999.2,N
1514806995.8,286046995.7,N
1514807015.6,286046994.1,N
1514807035.5,286046996.2,N
1514807055.3,286046995.4,N
1514807075.1,286046996.4,N
1514807095.8,286046996.8,N
1514807115.7,286046995.7,N
1514807135.5,286046997.5,N
1514807155.3,286047001.1,N
1514807175.2,286046998.9,N
1514807195.0,286046999.2,N
1514807195.9,286046999.2,N
1514807215.7,286046997.2,N
1514807235.6,286046996.7,N
1514807255.4,286046997.2,N
1514807275.2,286046997.0,N
1514807295.1,286046997.9,N
1514807296.0,286046997.9,N
1514807315.8,286046997.4,N
1514807335.6,286046995.3,N
1514807355.5,286046996.3,N
1514807375.3,286046994.3,Y
1514807395.1,286046996.2,P
1514807415.9,286046994.8,P
1514807435.7,286046994.1,P
1514807455.5,286046995.9,Y
1514807475.4,286047001.3,P
1514807495.2,286047002.5,N
1514807515.0,286047004.4,N
1514807515.9,286047004.4,N
1514807535.8,286047001.2,N
1514807555.6,286046998.1,N
1514807575.4,286046998.6,N
1514807595.3,286046999.0,N
1514807615.1,286046997.8,N
1514807616.0,286046997.8,N
1514807635.8,286046996.7,N
1514807655.6,286047004.3,N
1514807675.5,286047001.5,N
1514807695.3,286047003.0,N
1514807715.1,286047000.8,N
1514807735.9,286047002.0,N
1514807755.7,286047002.0,N
1514807775.5,286046999.6,N
1514807795.4,286046998.9,N
1514807815.2,286047000.6,N
1514807835.0,286046999.8,N
1514807835.9,286046999.8,N
1514807855.8,286047001.6,N
1514807875.6,286047000.1,N
1514807895.4,286046998.8,N
1514807915.3,286047003.7,N
1514807935.1,286047005.4,N
1514807936.0,286047005.4,N
1514807955.8,286047007.5,N
1514807975.6,286047004.0,N
1514807995.5,286047001.3,N
